Weather History for KADC - February, 2013

Change the Weather History Date:

Wednesday, February 13, 2013

  Actual Average Record
Temperature  
Mean Temperature 24 °F -  
Max Temperature 30 °F 23 °F 46 °F (1947)
Min Temperature 17 °F 0 °F -24 °F (1951)
Degree Days  
Heating Degree Days 42    
Moisture  
Dew Point 21 °F    
Average Humidity 90    
Maximum Humidity 100    
Minimum Humidity 74    
Precipitation  
Precipitation 0.02 in - - ()
Sea Level Pressure  
Sea Level Pressure 29.63 in    
Wind  
Wind Speed 7 mph (WNW)    
Max Wind Speed 12 mph    
Max Gust Speed -    
Visibility 7 miles    
Events Rain , Snow    
Averages and records for this station are not official NWS values.
T = Trace of Precipitation, MM = Missing Value Source: NWS Daily Summary

Daily Weather History Graph

Daily Weather History Graph

Search for Another Location

Airport or City:

Trip Planner

Search our weather history database for the weather conditions in past years. The results will help you decide how hot, cold, wet, or windy it might be!

Date:

Astronomy

Feb. 13, 2013 Rise Set
Actual Time 7:27 AM CST 5:43 PM CST
Civil Twilight 6:55 AM CST 6:14 PM CST
Nautical Twilight 6:20 AM CST 6:50 PM CST
Astronomical Twilight 5:45 AM CST 7:25 PM CST
Moon 8:40 AM CST (2/13) 10:05 PM CST (2/13)
Length of Visible Light 11h 19m
Length of Day
10h 16m
Waxing Crescent, 14% of the Moon is Illuminated
Feb 13
Waxing Crescent
Feb 17
First Quarter
Feb 25
Full
Mar 4
Last Quarter
Mar 11
New

Hourly Weather History & Observations

Time (CST) Temp. Windchill Dew Point Humidity Pressure Visibility Wind Dir Wind Speed Gust Speed Precip Events Conditions
12:15 AM 19.4 °F 8.6 °F 17.6 °F 93% 29.72 in 10.0 mi West 9.2 mph - N/A   Overcast
12:34 AM 19.4 °F 8.6 °F 15.8 °F 86% 29.72 in 10.0 mi West 9.2 mph - N/A   Mostly Cloudy
12:53 AM 19.4 °F 8.6 °F 17.6 °F 93% 29.72 in 10.0 mi WSW 9.2 mph - N/A   Mostly Cloudy
1:15 AM 17.6 °F 5.7 °F 15.8 °F 93% 29.72 in 10.0 mi West 10.4 mph - N/A   Scattered Clouds
1:35 AM 17.6 °F 6.4 °F 15.8 °F 93% 29.71 in 10.0 mi WSW 9.2 mph - N/A   Scattered Clouds
1:52 AM 17.6 °F 5.7 °F 15.8 °F 93% 29.71 in 10.0 mi WSW 10.4 mph - N/A   Scattered Clouds
2:15 AM 17.6 °F 5.7 °F 15.8 °F 93% 29.71 in 10.0 mi WSW 10.4 mph - N/A   Scattered Clouds
2:35 AM 17.6 °F 5.7 °F 15.8 °F 93% 29.71 in 10.0 mi WSW 10.4 mph - N/A   Mostly Cloudy
2:53 AM 19.4 °F 7.9 °F 15.8 °F 86% 29.71 in 10.0 mi West 10.4 mph - N/A   Overcast
3:15 AM 19.4 °F 7.2 °F 17.6 °F 93% 29.71 in 10.0 mi West 11.5 mph - N/A   Overcast
3:34 AM 19.4 °F 8.6 °F 17.6 °F 93% 29.70 in 10.0 mi WSW 9.2 mph - N/A   Overcast
3:53 AM 19.4 °F 9.5 °F 17.6 °F 93% 29.69 in 10.0 mi WSW 8.1 mph - N/A   Overcast
4:15 AM 19.4 °F 11.5 °F 17.6 °F 93% 29.68 in 10.0 mi WSW 5.8 mph - N/A   Overcast
4:35 AM 19.4 °F 8.6 °F 17.6 °F 93% 29.68 in 10.0 mi West 9.2 mph - N/A   Overcast
4:53 AM 19.4 °F 10.4 °F 17.6 °F 93% 29.68 in 10.0 mi WSW 6.9 mph - N/A   Overcast
5:14 AM 19.4 °F 10.4 °F 17.6 °F 93% 29.67 in 10.0 mi WSW 6.9 mph - N/A   Overcast
5:35 AM 19.4 °F 11.5 °F 17.6 °F 93% 29.67 in 10.0 mi WSW 5.8 mph - N/A   Overcast
5:52 AM 19.4 °F 11.5 °F 17.6 °F 93% 29.66 in 10.0 mi WSW 5.8 mph - N/A   Overcast
6:15 AM 19.4 °F 10.4 °F 17.6 °F 93% 29.66 in 10.0 mi WSW 6.9 mph - N/A   Mostly Cloudy
6:35 AM 19.4 °F 9.5 °F 17.6 °F 93% 29.65 in 10.0 mi SW 8.1 mph - N/A   Scattered Clouds
6:52 AM 19.4 °F 10.4 °F 17.6 °F 93% 29.65 in 10.0 mi WSW 6.9 mph - N/A   Clear
7:15 AM 19.4 °F 10.4 °F 17.6 °F 93% 29.65 in 10.0 mi WSW 6.9 mph - N/A   Clear
7:35 AM 17.6 °F 7.3 °F 15.8 °F 93% 29.64 in 7.0 mi WSW 8.1 mph - N/A   Clear
7:53 AM 17.6 °F 9.3 °F 15.8 °F 93% 29.64 in 7.0 mi WSW 5.8 mph - N/A   Clear
8:15 AM 19.4 °F 9.5 °F 17.6 °F 93% 29.64 in 7.0 mi SW 8.1 mph - N/A   Clear
8:35 AM 19.4 °F 9.5 °F 17.6 °F 93% 29.63 in 10.0 mi WSW 8.1 mph - N/A   Clear
8:52 AM 21.2 °F 12.6 °F 17.6 °F 86% 29.64 in 10.0 mi WSW 6.9 mph - N/A   Clear
9:15 AM 21.2 °F 13.6 °F 17.6 °F 86% 29.63 in 10.0 mi WSW 5.8 mph - N/A   Clear
9:35 AM 23.0 °F 15.8 °F 19.4 °F 86% 29.62 in 10.0 mi West 5.8 mph - N/A   Clear
9:52 AM 24.8 °F 17.9 °F 19.4 °F 80% 29.62 in 10.0 mi WSW 5.8 mph - N/A   Clear
10:15 AM 24.8 °F 19.1 °F 19.4 °F 80% 29.62 in 10.0 mi WSW 4.6 mph - N/A   Clear
10:35 AM 26.6 °F 21.2 °F 21.2 °F 80% 29.61 in 10.0 mi West 4.6 mph - N/A   Clear
11:15 AM 26.6 °F 22.6 °F 21.2 °F 80% 29.62 in 10.0 mi West 3.5 mph - N/A   Clear
11:34 AM 28.4 °F 24.6 °F 21.2 °F 74% 29.62 in 10.0 mi West 3.5 mph - N/A   Clear
11:53 AM 28.4 °F 24.6 °F 21.2 °F 74% - 10.0 mi West 3.5 mph - N/A   Clear
12:15 PM 28.4 °F 24.6 °F 21.2 °F 74% 29.60 in 10.0 mi West 3.5 mph - N/A   Clear
12:34 PM 28.4 °F 24.6 °F 21.2 °F 74% 29.60 in 10.0 mi NNW 3.5 mph - N/A   Clear
12:53 PM 28.4 °F 24.6 °F 21.2 °F 74% 29.59 in 10.0 mi NW 3.5 mph - N/A   Clear
1:14 PM 28.4 °F 23.3 °F 23.0 °F 80% 29.58 in 10.0 mi NNW 4.6 mph - N/A   Clear
1:35 PM 28.4 °F - 23.0 °F 80% 29.58 in 10.0 mi Calm Calm - N/A   Scattered Clouds
1:52 PM 28.4 °F - 23.0 °F 80% 29.58 in 10.0 mi Calm Calm - N/A   Scattered Clouds
2:15 PM 28.4 °F - 23.0 °F 80% 29.57 in 10.0 mi Calm Calm - N/A   Scattered Clouds
2:35 PM 30.2 °F - 23.0 °F 75% 29.56 in 10.0 mi Calm Calm - N/A   Scattered Clouds
2:53 PM 30.2 °F - 23.0 °F 75% 29.56 in 10.0 mi Calm Calm - N/A   Mostly Cloudy
3:15 PM 28.4 °F - 24.8 °F 86% 29.56 in 2.5 mi Calm Calm - N/A Snow Light Snow
3:35 PM 28.4 °F - 24.8 °F 86% 29.57 in 1.2 mi Calm Calm - N/A Snow Snow
3:52 PM 28.4 °F - 26.6 °F 93% 29.56 in 1.0 mi Calm Calm - N/A Rain Light Freezing Rain
4:15 PM 28.4 °F 24.6 °F 26.6 °F 93% 29.56 in 1.0 mi North 3.5 mph - 0.01 in Snow Light Snow
4:35 PM 26.6 °F 22.6 °F 26.6 °F 100% 29.56 in 1.2 mi NNE 3.5 mph - 0.01 in Snow Light Snow
4:53 PM 26.6 °F - 26.6 °F 100% 29.56 in 1.0 mi Calm Calm - 0.01 in Snow Light Snow
5:14 PM 26.6 °F 22.6 °F 26.6 °F 100% 29.56 in 1.5 mi NE 3.5 mph - 0.01 in Snow Light Snow
5:35 PM 26.6 °F 21.2 °F 26.6 °F 100% 29.56 in 1.5 mi NNE 4.6 mph - 0.01 in Snow Light Snow
5:52 PM 26.6 °F 22.6 °F 26.6 °F 100% 29.57 in 1.2 mi NNE 3.5 mph - 0.01 in Snow Light Snow
6:15 PM 26.6 °F - 26.6 °F 100% 29.57 in 1.5 mi Calm Calm - N/A Snow Light Snow
6:35 PM 26.6 °F 22.6 °F 26.6 °F 100% 29.58 in 1.5 mi North 3.5 mph - N/A Snow Light Snow
6:53 PM 26.6 °F 21.2 °F 26.6 °F 100% 29.58 in 1.8 mi North 4.6 mph - N/A Snow Light Snow
7:15 PM 26.6 °F 21.2 °F 26.6 °F 100% 29.59 in 1.2 mi North 4.6 mph - N/A Snow Light Snow
7:34 PM 26.6 °F 22.6 °F 26.6 °F 100% 29.60 in 1.8 mi North 3.5 mph - N/A Snow Light Snow
7:53 PM 26.6 °F 20.0 °F 26.6 °F 100% 29.60 in 3.0 mi North 5.8 mph - N/A Snow Light Snow
8:15 PM 26.6 °F 20.0 °F 26.6 °F 100% 29.61 in 3.0 mi North 5.8 mph - N/A Snow Light Snow
8:34 PM 26.6 °F 20.0 °F 26.6 °F 100% 29.61 in 2.5 mi North 5.8 mph - N/A Snow Light Snow
8:53 PM 26.6 °F 20.0 °F 26.6 °F 100% 29.62 in 3.0 mi North 5.8 mph - N/A Snow Light Snow
9:14 PM 26.6 °F 20.0 °F 26.6 °F 100% 29.62 in 2.0 mi North 5.8 mph - N/A Snow Light Snow
9:35 PM 26.6 °F 19.1 °F 26.6 °F 100% 29.63 in 3.0 mi North 6.9 mph - N/A Snow Light Snow
9:53 PM 26.6 °F 21.2 °F 24.8 °F 93% 29.63 in 3.0 mi North 4.6 mph - N/A Snow Light Snow
10:15 PM 26.6 °F 20.0 °F 24.8 °F 93% 29.64 in 5.0 mi North 5.8 mph - N/A Snow Light Snow
10:35 PM 26.6 °F 20.0 °F 24.8 °F 93% 29.65 in 10.0 mi North 5.8 mph - N/A   Overcast
10:53 PM 24.8 °F 19.1 °F 23.0 °F 93% 29.65 in 10.0 mi North 4.6 mph - N/A   Overcast
11:15 PM 24.8 °F 16.1 °F 21.2 °F 86% 29.66 in 10.0 mi North 8.1 mph - N/A   Scattered Clouds
11:35 PM 24.8 °F 16.9 °F 21.2 °F 86% 29.66 in 10.0 mi North 6.9 mph - N/A   Clear
11:52 PM 24.8 °F 16.9 °F 21.2 °F 86% 29.67 in 10.0 mi North 6.9 mph - N/A   Clear